TimeCDT,TemperatureF,Dew PointF,Humidity,Sea Level PressureIn,VisibilityMPH,Wind Direction,Wind SpeedMPH,Gust SpeedMPH,PrecipitationIn,Events,Conditions,WindDirDegrees,DateUTC
12:53 AM,26.1,21.0,81,30.04,10.0,Calm,Calm,-,N/A,,Clear,0,2013-03-12 05:53:00
1:53 AM,26.1,21.9,84,30.07,10.0,Calm,Calm,-,N/A,,Clear,0,2013-03-12 06:53:00
2:53 AM,24.1,19.9,84,30.07,9.0,Calm,Calm,-,N/A,,Clear,0,2013-03-12 07:53:00
3:53 AM,24.1,19.9,84,30.09,10.0,SSW,3.5,-,N/A,,Clear,200,2013-03-12 08:53:00
4:53 AM,21.9,19.0,89,30.11,10.0,Calm,Calm,-,N/A,,Clear,0,2013-03-12 09:53:00
5:53 AM,24.1,19.9,84,30.13,10.0,Calm,Calm,-,N/A,,Partly Cloudy,0,2013-03-12 10:53:00
6:53 AM,27.0,21.9,81,30.14,10.0,WSW,4.6,-,N/A,,Clear,240,2013-03-12 11:53:00
7:53 AM,28.0,23.0,81,30.16,10.0,SSW,5.8,-,N/A,,Mostly Cloudy,210,2013-03-12 12:53:00
8:53 AM,30.0,25.0,82,30.17,10.0,SW,3.5,-,N/A,,Mostly Cloudy,230,2013-03-12 13:53:00
9:53 AM,37.0,27.0,67,30.18,10.0,West,10.4,-,N/A,,Clear,270,2013-03-12 14:53:00
10:53 AM,39.9,24.1,53,30.20,10.0,NW,21.9,31.1,N/A,,Clear,310,2013-03-12 15:53:00
11:53 AM,39.9,23.0,51,30.22,10.0,WNW,25.3,33.4,N/A,,Scattered Clouds,300,2013-03-12 16:53:00
12:53 PM,42.1,25.0,51,30.23,10.0,WNW,20.7,27.6,N/A,,Mostly Cloudy,300,2013-03-12 17:53:00
1:53 PM,43.0,24.1,47,30.22,10.0,WNW,24.2,32.2,N/A,,Scattered Clouds,300,2013-03-12 18:53:00
2:53 PM,42.1,25.0,51,30.23,10.0,NW,21.9,27.6,N/A,,Mostly Cloudy,310,2013-03-12 19:53:00
3:53 PM,39.9,21.9,49,30.24,10.0,NW,23.0,35.7,N/A,,Overcast,310,2013-03-12 20:53:00
4:53 PM,37.9,23.0,55,30.26,10.0,NNW,20.7,25.3,N/A,,Overcast,340,2013-03-12 21:53:00
5:53 PM,37.0,21.9,54,30.28,10.0,NNW,17.3,-,N/A,,Overcast,330,2013-03-12 22:53:00
6:53 PM,35.1,21.0,57,30.29,10.0,NW,16.1,-,N/A,,Overcast,320,2013-03-12 23:53:00
7:53 PM,34.0,21.9,61,30.31,10.0,NW,16.1,-,N/A,,Mostly Cloudy,320,2013-03-13 00:53:00
8:53 PM,32.0,23.0,69,30.33,10.0,NNW,9.2,-,N/A,,Clear,340,2013-03-13 01:53:00
9:53 PM,30.9,21.0,67,30.35,10.0,NNW,12.7,-,N/A,,Clear,330,2013-03-13 02:53:00
10:53 PM,30.0,19.0,64,30.35,10.0,NNW,10.4,-,N/A,,Clear,330,2013-03-13 03:53:00
11:53 PM,28.9,18.0,64,30.36,10.0,NW,6.9,-,N/A,,Clear,320,2013-03-13 04:53:00